Flag for Australia Weather past 2 weeks in Toowoomba, Queensland, Australia

Now
74 °F

Mild.


Feels Like: 77 °F
Forecast: 62 / 76 °F
Wind: 16 mph from Northeast

Location: Oakey Aerodrome

Current Time: Mar 29, 2015 at 9:55:36 AM

Latest Report: Mar 29, 2015 at 9:00 AM


Visibility: N/A

Pressure: 30.20 "Hg

Humidity: 60%

Dew point: 60 °F

Location of ToowoombaLocation

Historic Weather in Toowoomba — Graph

°F

Toowoomba temperature yesterday

Maximum temperature yesterday: 84 °F (at 12:00 PM)
Minimum temperature yesterday: 58 °F (at 4:00 AM)
Average temperature yesterday: 71 °F

Past Weeks' High & Low Weather Summary

 TemperatureHumidityPressure
High100 °F (Mar 20, 4:00 PM)99% (Mar 28, 7:00 AM)30.17 "Hg (Mar 28, 7:00 AM)
Low56 °F (Mar 15, 3:00 AM)13% (Mar 20, 4:00 PM)29.72 "Hg (Mar 15, 3:00 PM)
Average74 °F67%29.97 "Hg
* Reported Mar 14 9:00 AM — Mar 29 7:00 AM, Toowoomba, Weather by CustomWeather, © 2015

Note: Actual official high and low records may vary slightly from our data, if they occured in-between our weather recording intervals... More about our weather records

Advertising

Toowoomba weather history for previous 24 hours

 ConditionsComfort  
Time TempWeatherWind HumidityBarometerVisibility
7:00 AM
Sun, Mar 29
65 °FMild.6 mph86%30.17 "HgN/A
6:00 AM61 °FCool.7 mph90%30.14 "HgN/A
4:00 AM60 °FCool.7 mph92%30.10 "HgN/A
3:00 AM62 °FCool.8 mph88%30.09 "HgN/A
1:00 AM63 °FMild.8 mph87%30.12 "HgN/A
12:00 AM65 °FMild.6 mph84%30.13 "HgN/A
10:00 PM
Sat, Mar 28
68 °FMild.14 mph78%30.14 "HgN/A
9:00 PM69 °FPassing clouds.14 mph76%30.13 "HgN/A
7:00 PM73 °FMild.13 mph75%30.09 "HgN/A
6:00 PM76 °FPassing clouds.14 mph69%30.05 "HgN/A
4:00 PM83 °FWarm.13 mph47%30.03 "HgN/A
3:00 PM84 °FPassing clouds.7 mph36%30.03 "HgN/A
1:00 PM83 °FPleasantly warm.3 mph39%30.07 "HgN/A
12:00 PM84 °FPleasantly warm.6 mph39%30.09 "HgN/A
10:00 AM80 °FWarm.8 mph56%30.14 "HgN/A
9:00 AM75 °FPassing clouds.9 mph68%30.14 "HgN/A
Weather by CustomWeather, © 2015

See weather overviewHow to use our weather pages